Location: Alphen aan den Rijn
(52.1277°N, 4.6689°E)
Time: 10:46:13
(UTC+01:00)

ISS - Visible Passes

Search period start: 25 November 2017 00:00
Search period end: 05 December 2017 00:00
Orbit: 401 x 407 km, 51.6° (Epoch: 25 November)

Date Brightness Start Highest point End Pass type
(mag) Time Alt. Az. Time Alt. Az. Time Alt. Az.
29 Nov -1.8 18:58:41 10° SSW 19:00:16 20° S 19:00:16 20° S visible
30 Nov -1.9 18:07:00 10° S 18:09:14 17° SE 18:10:04 16° SE visible
30 Nov -0.9 19:42:00 10° WSW 19:42:43 15° WSW 19:42:43 15° WSW visible
01 Dec -1.3 17:16:05 10° SSE 17:17:04 11° SE 17:18:04 10° ESE visible
01 Dec -2.9 18:49:46 10° SW 18:52:28 38° S 18:52:28 38° S visible
02 Dec -2.5 17:57:40 10° SSW 18:00:34 29° SSE 18:02:09 19° ESE visible
02 Dec -1.3 19:33:29 10° WSW 19:34:47 22° WSW 19:34:47 22° WSW visible
03 Dec -3.7 18:41:05 10° WSW 18:44:20 61° SSE 18:44:26 60° SSE visible
04 Dec -3.2 17:48:47 10° SW 17:51:56 45° SSE 17:54:02 18° E visible
04 Dec -1.7 19:24:59 10° W 19:26:40 28° W 19:26:40 28° W visible
